AirNav   Everest Fuels
 
 1082 users online  

WA09 Roche Harbor Airport
Roche Harbor, Washington, USA

GOING TO ROCHE HARBOR?


FAA INFORMATION EFFECTIVE 10 SEPTEMBER 2020

Location

FAA Identifier: WA09
Lat/Long: 48-36-44.3580N 123-08-18.6720W
48-36.739300N 123-08.311200W
48.6123217,-123.1385200
(estimated)
Elevation: 100 ft. / 30 m (estimated)
Variation: 21E (1985)
From city: 1 mile NE of ROCHE HARBOR, WA
Time zone: UTC -7 (UTC -8 during Standard Time)
Zip code: 98250

Airport Operations

Airport use: Private use. Permission required prior to landing
Activation date: 07/1961
Control tower: no
ARTCC: VANCOUVER CENTER
FSS: SEATTLE FLIGHT SERVICE STATION
Attendance: UNATNDD
Wind indicator: yes
Segmented circle: no
Lights: DUSK-2200
Landing fee: yes

Airport Communications

WX ASOS at FHR (7 nm SE): 135.675 (360-378-8491)
WX AWOS-3 at ORS (11 nm NE): 135.425 (360-376-6045)

Nearby radio navigation aids

VOR radial/distance  VOR name  Freq  Var
YYJr100/15.3VICTORIA VOR/DME113.7017E
CVVr304/27.5PENN COVE VOR/DME117.2019E
YVRr162/27.9VANCOUVER VOR/DME115.9017E
HUHr208/29.8WHATCOM VORTAC113.0020E

 
NDB name  Hdg/Dist  Freq  Var  ID
FRIDAY HARBOR306/7.528417EFHR ..-. .... .-.
VICTORIA079/10.520021EYJ -.-- .---
SKAGIT/BAY VIEW271/29.924016EBVS -... ...- ...
EDIZ HOOK003/30.233817ENOW -. --- .--

Airport Services

Airframe service: NONE
Powerplant service: NONE
Bottled oxygen: NONE
Bulk oxygen: NONE

Runway Information

Runway 7/25

Dimensions: 3593 x 30 ft. / 1095 x 9 m
Surface: asphalt, in fair condition
Runway edge lights: non-standard
RY 07/25 NSTD LIRL, ONLY CENTER 2700 FT OF RY IS LGTD.
Operational restrictions: RWY 25 HAS A DOWNHILL 50 FT GRAD FM DTHR TO WEST END OF RWY.
RUNWAY 7  RUNWAY 25
Traffic pattern: leftleft
Displaced threshold: 587 ft.92 ft.
Markings: basic, in fair conditionbasic, in fair condition
Obstructions: 160 ft. tree, 1136 ft. from runway, 75 ft. left of centerline30 ft. hill, 200 ft. from runway

Airport Ownership and Management from official FAA records

Ownership: Privately-owned
Owner: ROCHE HARBOR AIRPORT INC
8484 ROCHE HARBOR ROAD
FRIDAY HARBOR, WA 98250
Phone 360-378-3500
Manager: DAN ROOT
8484 ROCHE HARBOR ROAD
FRIDAY HARBOR, WA 98250
Phone 360-378-3500

Additional Remarks

NO LINE OF SIGHT BTN RY ENDS. PILOTS MAINTAIN COMMS ON FREQ 128.25 WITH LDG LGTS ON.
TARND AT WEST END ENLARGED, 80 FT CRC.
APCH/DEP SVC PRVD BY VICTORIA TRML ON 132.7/290.8. 604 586-4560.
NO PARKING ON GRASS DURG RAINY SEASON NOV-APR.
MEDIVAC ACFT HAVE PRIORITY USE OF ARPT, AND THE TWO HELIPADS.
NGT OPNS NOT RECOMMENDED.
DRAINAGE DITCH N. SIDE RY 30 FT FM RY EDGE.
NO INTERSECTION DEPARTURES FROM TWY C.
NO DEPARTURES ALLOWED FROM TWY C.
UNICOM FREQUENCY CTAF - 128.25
TARND AT WEST END FOR PAX DROP OFF / NO PRKG.

Instrument Procedures

There are no published instrument procedures at WA09.

Some nearby airports with instrument procedures:

KFHR - Friday Harbor Airport (7 nm SE)
KORS - Orcas Island Airport (11 nm NE)
KNUW - Whidbey Island Naval Air Station (Ault Field) (25 nm SE)
KBLI - Bellingham International Airport (26 nm NE)
KOKH - AJ Eisenberg Airport (28 nm SE)
 
Loc | Ops | Rwys | IFR | FBO | Links
Com | Nav | Svcs | Stats | Notes
Area around WA09 (Roche Harbor Airport)
 
Road maps at: MapQuest Bing Google
 
Aerial photo
WARNING: Photo may not be current or correct
Aerial photo of WA09 (Roche Harbor Airport)
Photo courtesy of longbachnguyen.com
Photo taken 17-Jun-2010

Do you have a better or more recent aerial photo of Roche Harbor Airport that you would like to share? If so, please send us your photo.

 
Sectional chart

 
Airport distance calculator
Flying to Roche Harbor Airport? Find the distance to fly.

From to WA09

Sunrise and sunset
Times for 27-Sep-2020
 Local
(UTC-7)
 Zulu
(UTC)
Morning civil twilight06:3813:38
Sunrise07:0914:09
Sunset18:5801:58
Evening civil twilight19:2902:29

Current date and time
Zulu (UTC)  27-Sep-2020 23:47:25
Local (UTC-7)  27-Sep-2020 16:47:25
 
METAR
CWZO 
5nm SW 
272300Z AUTO 04008KT RMK AO1
KFHR 
7nm SE 
272253Z AUTO 02004KT 10SM SCT060 17/11 A3048 RMK AO2 SLP321 T01720106 TSNO
CWEZ 
10nm NE 
272300Z AUTO RMK AO1
KORS 
11nm NE 
272335Z AUTO 33004KT 10SM CLR 14/11 A3047 RMK AO2
CWYJ 
11nm SW 
272300Z AUTO 02004KT 16/11 RMK AO1 SLP321 T01560112 56007
CYYJ 
12nm W 
272300Z 07005KT 30SM FEW025 FEW070 SCT095 SCT200 16/10 A3047 RMK CU1AC2AC1CI1 CU TR SLP318
CWLM 
14nm SW 
272300Z AUTO 07004KT 16/11 RMK AO1 SLP319 T01610107 56006
CYWH 
14nm SW 
272300Z 22004KT 15SM FEW020 SCT060 BKN140 BKN230 15/11 A3047 RMK CU1SC2AC2CI1 SLP320
CWPF 
16nm SW 
272330Z AUTO 23006KT 12/10 RMK AO1 SLP315 T01220101 56007
CWKH 
17nm W 
272300Z AUTO 15/ RMK AO1 SLP312 T0149 58006
TAF
CYYJ 
12nm W 
271738Z 2718/2818 VRB03KT P6SM SCT020 BKN060 TEMPO 2718/2721 BKN020 BECMG 2718/2719 11008KT FM272100 11008KT P6SM FEW020 SCT060 FM280200 VRB03KT P6SM SCT040 PROB30 2812/2817 1/2SM FG RMK NXT FCST BY 280000Z
CYWH 
14nm SW 
272039Z 2721/2804 VRB03KT P6SM FEW020 BKN080 FM272200 VRB03KT P6SM SCT070 RMK NXT FCST WILL BE ISSUED AT 281415Z
NOTAMs
Click for the latest NOTAMs
NOTAMs are issued by the DoD/FAA and will open in a separate window not controlled by AirNav.

 

 
 

Getting Around: Taxi, Limo, Rental Cars, Mass Transit

  
 Business Name 
 
 Contact 
 
Services / Description
 
Comments
  
Susie's Moped Rentals, Inc 360-378-5244
[web site]
[email]
Rental cars, Ground transportation, Other business

More info about Susie's Moped Rentals, Inc
 
   write
 

Would you like to see your business listed on this page?

 If your business provides an interesting product or service to pilots, flight crews, aircraft, or users of the Roche Harbor Airport, you should consider listing it here.  To start the listing process, click on the button below
 
Add a business
 

Other Pages about Roche Harbor Airport

Update a link
 
Copyright © AirNav, LLC. All rights reserved. Privacy Policy  Contact